• In United Kingdom
  • List of Countries
  • For 7 days
  • Water Temperature
  • Satellite Maps
  • Weather Map
  • Weather Widgets
  • user-avatar
    Login

    Hourly Weather Canberra

    Today, 18 August, Friday

    Time Temperature Precipitation Wind Pressure Humidity
    00:00 +5°C° 0.3 mm 5 mps 701 mmHg 82%
    01:00 +5°C° 0.3 mm 5 mps 701 mmHg 84%
    02:00 +3°C° 0.1 mm 6 mps 701 mmHg 83%
    03:00 +3°C° 0.1 mm 6 mps 701 mmHg 82%
    04:00 +3°C° 0 mm 6 mps 701 mmHg 81%
    05:00 +2°C° 0.2 mm 6 mps 701 mmHg 81%
    06:00 +2°C° 0.2 mm 6 mps 702 mmHg 81%
    07:00 +2°C° 0.2 mm 6 mps 702 mmHg 80%
    08:00 +3°C° 0.1 mm 7 mps 702 mmHg 75%
    09:00 +4°C° 0.1 mm 7 mps 702 mmHg 70%
    10:00 +4°C° 0 mm 8 mps 703 mmHg 69%
    11:00 +4°C° 0.1 mm 8 mps 703 mmHg 66%
    12:00 +5°C° 0.1 mm 8 mps 703 mmHg 64%
    13:00 +5°C° 0.1 mm 8 mps 703 mmHg 61%
    14:00 +5°C° 0.1 mm 8 mps 703 mmHg 62%
    15:00 +5°C° 0.1 mm 7 mps 703 mmHg 62%
    16:00 +5°C° 0 mm 7 mps 704 mmHg 64%
    17:00 +4°C° 0.1 mm 7 mps 704 mmHg 68%
    18:00 +3°C° 0.1 mm 6 mps 705 mmHg 72%
    19:00 +3°C° 0.1 mm 5 mps 705 mmHg 76%
    20:00 +2°C° 0 mm 5 mps 706 mmHg 76%
    21:00 +2°C° 0 mm 5 mps 706 mmHg 76%
    22:00 +3°C° 0 mm 3 mps 706 mmHg 80%
    23:00 +2°C° 0 mm 3 mps 707 mmHg 80%

    Tomorrow, 19 August, Saturday

    Time Temperature Precipitation Wind Pressure Humidity
    00:00 +1°C° 0 mm 4 mps 707 mmHg 81%
    01:00 +1°C° 0 mm 4 mps 707 mmHg 81%
    02:00 0°C° 0 mm 4 mps 707 mmHg 81%
    03:00 +1°C° 0 mm 3 mps 707 mmHg 81%
    04:00 0°C° 0 mm 3 mps 708 mmHg 81%
    05:00 0°C° 0 mm 3 mps 708 mmHg 82%
    06:00 -1°C° 0 mm 2 mps 708 mmHg 83%
    07:00 -1°C° 0 mm 2 mps 709 mmHg 84%
    08:00 +1°C° 0 mm 3 mps 710 mmHg 74%
    09:00 +3°C° 0 mm 3 mps 710 mmHg 64%
    10:00 +6°C° 0 mm 4 mps 711 mmHg 54%
    11:00 +7°C° 0 mm 4 mps 711 mmHg 51%
    12:00 +7°C° 0 mm 4 mps 711 mmHg 48%
    13:00 +8°C° 0 mm 4 mps 711 mmHg 45%
    14:00 +8°C° 0 mm 4 mps 711 mmHg 46%
    15:00 +8°C° 0 mm 4 mps 712 mmHg 47%
    16:00 +9°C° 0 mm 3 mps 712 mmHg 48%
    17:00 +7°C° 0 mm 3 mps 712 mmHg 56%
    18:00 +4°C° 0 mm 3 mps 712 mmHg 63%
    19:00 +2°C° 0 mm 2 mps 713 mmHg 70%
    20:00 +2°C° 0 mm 2 mps 713 mmHg 72%
    21:00 +1°C° 0 mm 2 mps 713 mmHg 74%
    22:00 -1°C° 0 mm 2 mps 714 mmHg 77%
    23:00 -1°C° 0 mm 2 mps 714 mmHg 78%

    Day after tomorrow, 20 August, Sunday

    Time Temperature Precipitation Wind Pressure Humidity
    00:00 -1°C° 0 mm 2 mps 714 mmHg 79%
    01:00 -1°C° 0 mm 2 mps 714 mmHg 80%
    02:00 -2°C° 0 mm 2 mps 714 mmHg 81%
    03:00 -2°C° 0 mm 2 mps 713 mmHg 82%
    04:00 -2°C° 0 mm 2 mps 713 mmHg 83%
    05:00 -2°C° 0 mm 2 mps 714 mmHg 83%
    06:00 0°C° 0 mm 1 mps 714 mmHg 83%
    07:00 0°C° 0 mm 1 mps 714 mmHg 83%
    08:00 +3°C° 0 mm 1 mps 714 mmHg 71%
    09:00 +7°C° 0 mm 1 mps 715 mmHg 59%
    10:00 +10°C° 0 mm 1 mps 715 mmHg 47%
    11:00 +11°C° 0 mm 1 mps 714 mmHg 44%
    12:00 +12°C° 0 mm 1 mps 714 mmHg 41%
    13:00 +13°C° 0 mm 1 mps 713 mmHg 38%
    14:00 +13°C° 0 mm 2 mps 713 mmHg 42%
    15:00 +12°C° 0 mm 2 mps 712 mmHg 45%
    16:00 +10°C° 0 mm 3 mps 712 mmHg 49%
    17:00 +8°C° 0 mm 2 mps 712 mmHg 60%
    18:00 +6°C° 0 mm 1 mps 712 mmHg 71%
    19:00 +4°C° 0 mm 1 mps 712 mmHg 82%
    20:00 +3°C° 0 mm 1 mps 712 mmHg 83%
    21:00 +2°C° 0 mm 0 mps 712 mmHg 85%
    22:00 +1°C° 0 mm 0 mps 712 mmHg 87%
    23:00 +1°C° 0 mm 0 mps 711 mmHg 88%

    21 August, Monday

    Time Temperature Precipitation Wind Pressure Humidity
    00:00 +1°C° 0 mm 0 mps 711 mmHg 88%
    01:00 0°C° 0 mm 0 mps 711 mmHg 89%
    02:00 +1°C° 0 mm 0 mps 710 mmHg 86%
    03:00 +1°C° 0 mm 0 mps 710 mmHg 84%
    04:00 +1°C° 0 mm 0 mps 710 mmHg 81%
    05:00 +3°C° 0 mm 1 mps 710 mmHg 79%
    06:00 +3°C° 0 mm 1 mps 710 mmHg 76%
    07:00 +4°C° 0 mm 1 mps 710 mmHg 73%
    08:00 +5°C° 0.1 mm 1 mps 710 mmHg 69%
    09:00 +6°C° 0.1 mm 1 mps 710 mmHg 65%
    10:00 +7°C° 0.1 mm 2 mps 710 mmHg 60%
    11:00 +8°C° 0.1 mm 3 mps 709 mmHg 56%
    12:00 +9°C° 0.1 mm 3 mps 709 mmHg 52%
    13:00 +10°C° 0.1 mm 4 mps 708 mmHg 48%
    14:00 +8°C° 0 mm 4 mps 708 mmHg 53%
    15:00 +9°C° 0 mm 3 mps 707 mmHg 58%
    16:00 +8°C° 0 mm 3 mps 707 mmHg 62%
    17:00 +7°C° 0 mm 2 mps 707 mmHg 69%
    18:00 +6°C° 0 mm 2 mps 708 mmHg 76%
    19:00 +5°C° 0 mm 1 mps 708 mmHg 82%
    20:00 +5°C° 0.1 mm 1 mps 708 mmHg 83%
    21:00 +5°C° 0.1 mm 1 mps 708 mmHg 84%
    22:00 +6°C° 0.1 mm 1 mps 708 mmHg 84%
    23:00 +5°C° 0 mm 1 mps 708 mmHg 85%

    22 August, Tuesday

    Time Temperature Precipitation Wind Pressure Humidity
    00:00 +5°C° 0 mm 1 mps 707 mmHg 87%
    01:00 +4°C° 0 mm 1 mps 707 mmHg 88%
    02:00 +4°C° 0 mm 1 mps 707 mmHg 88%
    03:00 +4°C° 0 mm 1 mps 706 mmHg 88%
    04:00 +3°C° 0 mm 1 mps 706 mmHg 88%
    05:00 +3°C° 0 mm 1 mps 707 mmHg 87%
    06:00 +3°C° 0 mm 1 mps 707 mmHg 86%
    07:00 +3°C° 0 mm 1 mps 707 mmHg 84%
    08:00 +6°C° 0 mm 1 mps 708 mmHg 73%
    09:00 +9°C° 0 mm 1 mps 708 mmHg 61%
    10:00 +12°C° 0 mm 1 mps 709 mmHg 50%
    11:00 +13°C° 0 mm 1 mps 709 mmHg 49%
    12:00 +15°C° 0 mm 2 mps 708 mmHg 48%
    13:00 +16°C° 0 mm 2 mps 708 mmHg 47%
    14:00 +15°C° 0 mm 2 mps 708 mmHg 51%
    15:00 +14°C° 0 mm 3 mps 708 mmHg 56%
    16:00 +14°C° 0 mm 3 mps 708 mmHg 61%
    17:00 +11°C° 0 mm 3 mps 708 mmHg 71%
    18:00 +9°C° 0 mm 2 mps 709 mmHg 82%
    19:00 +7°C° 0 mm 2 mps 709 mmHg 93%
    20:00 +6°C° 0 mm 2 mps 710 mmHg 94%
    21:00 +6°C° 0 mm 2 mps 710 mmHg 95%
    22:00 +5°C° 0 mm 2 mps 710 mmHg 96%
    23:00 +5°C° 0 mm 2 mps 710 mmHg 96%

    23 August, Wednesday

    Time Temperature Precipitation Wind Pressure Humidity
    00:00 +4°C° 0 mm 2 mps 710 mmHg 96%
    01:00 +4°C° 0 mm 2 mps 710 mmHg 97%
    02:00 +4°C° 0 mm 2 mps 710 mmHg 97%
    03:00 +3°C° 0 mm 2 mps 710 mmHg 97%
    04:00 +3°C° 0 mm 2 mps 710 mmHg 97%
    05:00 +4°C° 0 mm 1 mps 711 mmHg 96%
    06:00 +4°C° 0 mm 1 mps 711 mmHg 95%
    07:00 +4°C° 0 mm 1 mps 712 mmHg 94%
    08:00 +7°C° 0 mm 1 mps 712 mmHg 83%
    09:00 +10°C° 0 mm 1 mps 712 mmHg 72%
    10:00 +13°C° 0 mm 1 mps 713 mmHg 62%
    11:00 +14°C° 0 mm 2 mps 712 mmHg 58%
    12:00 +15°C° 0 mm 2 mps 712 mmHg 54%
    13:00 +16°C° 0 mm 3 mps 712 mmHg 50%
    14:00 +14°C° 0 mm 3 mps 712 mmHg 53%
    15:00 +14°C° 0 mm 3 mps 712 mmHg 55%
    16:00 +13°C° 0 mm 3 mps 712 mmHg 58%
    17:00 +11°C° 0 mm 3 mps 712 mmHg 67%
    18:00 +9°C° 0 mm 3 mps 712 mmHg 77%
    19:00 +7°C° 0 mm 2 mps 713 mmHg 87%
    20:00 +6°C° 0 mm 2 mps 713 mmHg 89%
    21:00 +5°C° 0 mm 2 mps 713 mmHg 91%
    22:00 +5°C° 0 mm 1 mps 713 mmHg 93%
    23:00 +5°C° 0 mm 1 mps 713 mmHg 92%
    Show more